TimeEST,TemperatureF,Dew PointF,Humidity,Sea Level PressureIn,VisibilityMPH,Wind Direction,Wind SpeedMPH,Gust SpeedMPH,PrecipitationIn,Events,Conditions,WindDirDegrees,DateUTC
12:04 AM,26.6,19.4,74,29.66,2.5,SSE,29.9,43.7,0.00,Snow,Light Snow,160,2014-02-18 05:04:00
12:21 AM,26.6,19.4,74,29.65,2.5,SSE,28.8,42.6,0.01,Snow,Light Snow,150,2014-02-18 05:21:00
12:31 AM,26.6,19.4,74,29.66,3.0,SSE,26.5,38.0,0.01,,Mostly Cloudy,160,2014-02-18 05:31:00
12:51 AM,28.0,19.9,72,29.68,6.0,SSE,24.2,35.7,0.01,,Haze,150,2014-02-18 05:51:00
1:16 AM,28.4,21.2,74,29.68,9.0,South,19.6,31.1,N/A,,Overcast,170,2014-02-18 06:16:00
1:49 AM,30.2,23.0,75,29.67,7.0,South,24.2,34.5,N/A,,Overcast,170,2014-02-18 06:49:00
1:51 AM,30.0,23.0,75,29.71,6.0,South,23.0,34.5,0.00,Snow,Light Snow,180,2014-02-18 06:51:00
2:11 AM,30.2,24.8,80,29.68,2.0,South,19.6,29.9,0.00,Snow,Light Snow,170,2014-02-18 07:11:00
2:18 AM,30.2,24.8,80,29.68,1.5,South,18.4,29.9,0.00,Snow,Light Snow,180,2014-02-18 07:18:00
2:31 AM,30.2,26.6,86,29.68,2.0,South,17.3,26.5,0.00,Snow,Light Snow,170,2014-02-18 07:31:00
2:40 AM,30.2,26.6,86,29.68,1.2,South,16.1,21.9,0.00,Snow,Light Snow,170,2014-02-18 07:40:00
2:51 AM,30.0,26.1,85,29.72,1.5,South,15.0,21.9,0.01,Snow,Light Snow,170,2014-02-18 07:51:00
3:08 AM,30.2,26.6,86,29.68,3.0,South,11.5,-,0.01,Snow,Light Snow,190,2014-02-18 08:08:00
3:23 AM,32.0,26.6,80,29.68,2.5,SW,20.7,26.5,0.01,Snow,Light Snow,220,2014-02-18 08:23:00
3:32 AM,33.8,26.6,75,29.68,4.0,SSW,17.3,28.8,0.01,Snow,Light Snow,210,2014-02-18 08:32:00
3:51 AM,33.1,26.1,75,29.72,5.0,SW,18.4,26.5,0.01,Snow,Light Snow,220,2014-02-18 08:51:00
4:07 AM,32.0,26.6,80,29.69,2.0,SW,15.0,27.6,0.00,Snow,Light Snow,230,2014-02-18 09:07:00
4:09 AM,32.0,26.6,80,29.70,1.8,WSW,15.0,27.6,0.00,Snow,Light Snow,240,2014-02-18 09:09:00
4:17 AM,32.0,26.6,80,29.70,0.8,WSW,8.1,24.2,0.00,Snow,Light Snow,240,2014-02-18 09:17:00
4:22 AM,30.2,28.4,93,29.70,0.5,WSW,8.1,-,0.01,Fog-Snow,Snow,250,2014-02-18 09:22:00
4:39 AM,28.4,26.6,93,29.71,0.5,West,13.8,24.2,0.04,Fog-Snow,Snow,270,2014-02-18 09:39:00
4:51 AM,28.0,26.1,92,29.75,0.5,West,19.6,28.8,0.05,Fog-Snow,Snow,260,2014-02-18 09:51:00
5:19 AM,26.6,23.0,86,29.74,0.5,WSW,19.6,29.9,0.01,Fog-Snow,Snow,250,2014-02-18 10:19:00
5:51 AM,25.0,23.0,92,29.80,0.5,WSW,13.8,26.5,0.02,Fog-Snow,Snow,250,2014-02-18 10:51:00
6:04 AM,24.8,23.0,93,29.77,1.0,WSW,15.0,29.9,0.00,Snow,Light Snow,250,2014-02-18 11:04:00
6:26 AM,24.8,21.2,86,29.79,1.5,WSW,18.4,26.5,0.00,Snow,Light Snow,250,2014-02-18 11:26:00
6:48 AM,24.8,21.2,86,29.80,0.8,West,19.6,29.9,0.00,Snow,Light Snow,260,2014-02-18 11:48:00
6:51 AM,24.1,21.0,88,29.83,0.8,WSW,15.0,29.9,0.00,Snow,Light Snow,250,2014-02-18 11:51:00
7:00 AM,24.8,21.2,86,29.81,1.0,West,19.6,29.9,0.00,Snow,Light Snow,260,2014-02-18 12:00:00
7:19 AM,24.8,21.2,86,29.83,0.8,WSW,19.6,33.4,0.00,Snow,Light Snow,250,2014-02-18 12:19:00
7:31 AM,24.8,21.2,86,29.84,1.0,West,13.8,28.8,0.00,Snow,Light Snow,260,2014-02-18 12:31:00
7:35 AM,24.8,21.2,86,29.84,0.8,WSW,13.8,27.6,0.00,Snow,Light Snow,250,2014-02-18 12:35:00
7:37 AM,24.8,21.2,86,29.84,0.5,West,11.5,27.6,0.00,Fog-Snow,Light Snow,260,2014-02-18 12:37:00
7:47 AM,23.0,19.4,86,29.86,1.0,West,13.8,32.2,0.00,Snow,Light Snow,260,2014-02-18 12:47:00
7:51 AM,23.0,19.0,85,29.89,1.2,West,16.1,32.2,0.00,,Overcast,260,2014-02-18 12:51:00
8:01 AM,23.0,19.4,86,29.87,3.0,West,17.3,29.9,0.04,,Overcast,260,2014-02-18 13:01:00
8:51 AM,23.0,17.1,78,29.94,3.0,WSW,17.3,28.8,0.05,,Haze,250,2014-02-18 13:51:00
8:55 AM,23.0,17.6,80,29.91,1.8,West,17.3,26.5,0.00,Snow,Light Snow,260,2014-02-18 13:55:00
9:07 AM,21.2,17.6,86,29.92,0.8,West,17.3,27.6,0.00,Snow,Light Snow,260,2014-02-18 14:07:00
9:20 AM,21.2,17.6,86,29.93,0.5,West,16.1,28.8,0.00,Fog-Snow,Light Snow,260,2014-02-18 14:20:00
9:22 AM,21.2,17.6,86,29.93,0.8,WSW,15.0,25.3,0.00,Snow,Light Snow,250,2014-02-18 14:22:00
9:33 AM,23.0,17.6,80,29.93,0.5,WSW,12.7,26.5,0.00,Snow,Snow,250,2014-02-18 14:33:00
9:51 AM,23.0,19.0,85,29.97,0.5,West,12.7,24.2,0.00,Fog-Snow,Snow,260,2014-02-18 14:51:00
10:10 AM,21.2,17.6,86,29.95,0.5,West,13.8,25.3,0.01,Fog-Snow,Light Snow,260,2014-02-18 15:10:00
10:17 AM,23.0,17.6,80,29.96,1.0,WSW,15.0,26.5,0.01,Snow,Light Snow,250,2014-02-18 15:17:00
10:22 AM,23.0,17.6,80,29.96,3.0,West,11.5,26.5,0.01,Snow,Light Snow,260,2014-02-18 15:22:00
10:47 AM,24.8,17.6,74,29.97,8.0,West,16.1,26.5,0.01,,Mostly Cloudy,260,2014-02-18 15:47:00
10:51 AM,25.0,18.0,75,30.01,10.0,West,12.7,23.0,0.01,,Mostly Cloudy,260,2014-02-18 15:51:00
11:10 AM,24.8,17.6,74,29.99,10.0,West,15.0,23.0,N/A,,Mostly Cloudy,260,2014-02-18 16:10:00
11:51 AM,24.1,18.0,77,30.04,9.0,West,17.3,26.5,N/A,,Overcast,260,2014-02-18 16:51:00
12:51 PM,27.0,19.9,75,30.05,10.0,WSW,12.7,20.7,N/A,,Overcast,250,2014-02-18 17:51:00
1:51 PM,27.0,19.9,75,30.05,8.0,West,13.8,26.5,N/A,,Overcast,260,2014-02-18 18:51:00
2:51 PM,30.0,19.9,66,30.05,10.0,WSW,13.8,21.9,N/A,,Mostly Cloudy,250,2014-02-18 19:51:00
3:08 PM,30.2,19.4,64,30.02,9.0,West,10.4,20.7,N/A,,Scattered Clouds,260,2014-02-18 20:08:00
3:51 PM,30.9,21.0,67,30.04,8.0,West,9.2,-,N/A,,Clear,270,2014-02-18 20:51:00
4:51 PM,33.1,19.0,56,30.02,10.0,SSW,12.7,16.1,N/A,,Clear,200,2014-02-18 21:51:00
5:51 PM,32.0,19.9,61,30.01,9.0,South,8.1,-,N/A,,Clear,180,2014-02-18 22:51:00
6:51 PM,33.1,21.9,64,29.99,9.0,South,11.5,-,N/A,,Clear,180,2014-02-18 23:51:00
7:51 PM,35.1,24.1,64,29.95,9.0,South,16.1,-,N/A,,Clear,170,2014-02-19 00:51:00
8:51 PM,35.1,25.0,67,29.92,9.0,South,16.1,25.3,N/A,,Clear,170,2014-02-19 01:51:00
9:51 PM,37.0,24.1,59,29.90,10.0,South,17.3,-,N/A,,Clear,180,2014-02-19 02:51:00
10:51 PM,39.9,23.0,51,29.83,10.0,South,19.6,-,N/A,,Clear,170,2014-02-19 03:51:00
11:51 PM,39.9,23.0,51,29.83,10.0,South,18.4,-,N/A,,Clear,170,2014-02-19 04:51:00